Location: Hawks Ness
(60.2333°N, 1.1667°W)
Time: 23:31:53
(UTC+00:00)

Spot 2 - Pass Details

Date: 22 October 2019
Orbit: 569 x 775 km, 98.7° (Epoch: 11 November)

Event Time Altitude Azimuth Distance (km) Brightness Sun altitude
Rises 04:44:42 0° 17° (NNE) 2,800 7.8 -17.5°
Reaches altitude 10° 04:46:52 10° 14° (NNE) 1,891 6.8 -17.2°
Maximum altitude 04:50:52 60° 294° (WNW) 660 3.9 -16.7°
Enters shadow 04:53:14 23° 221° (SW) 1,240 5.2 -16.4°
